Weather History for Moriarty, NM

Change the Weather History Date:

Monday, November 25, 2013

  Actual Average (KABQ) Record (KABQ)
Temperature  
Mean Temperature 22 °F 41 °F  
Max Temperature 36 °F 51 °F 70 °F (1909)
Min Temperature 7 °F 31 °F 13 °F (1952)
Degree Days  
Heating Degree Days 43 24  
Month to date heating degree days 477  
Since 1 July heating degree days 743  
Cooling Degree Days 0 0  
Month to date cooling degree days 0  
Year to date cooling degree days 1322  
Moisture  
Dew Point 19 °F    
Average Humidity 82    
Maximum Humidity 93    
Minimum Humidity 62    
Precipitation  
Precipitation 0.00 in 0.02 in 0.72 in (1935)
Month to date precipitation 0.48  
Year to date precipitation 8.86  
Snow  
Snow 0.00 in - - ()
Month to date snowfall  
Since 1 July snowfall  
Since 1 September snowfall  
Snow Depth -    
Sea Level Pressure  
Sea Level Pressure 30.15 in    
Wind  
Wind Speed 7 mph (North)    
Max Wind Speed 21 mph    
Max Gust Speed 24 mph    
Visibility 10 miles    
Events Snow    
T = Trace of Precipitation, MM = Missing Value Source: NWS Daily Summary

Daily Weather History Graph

Daily Weather History Graph

Search for Another Location

Airport:

Trip Planner

Search our weather history database for the weather conditions in past years. The results will help you decide how hot, cold, wet, or windy it might be!

Date:

Astronomy

Nov. 25, 2013 Rise Set
Actual Time 6:48 AM MST 4:53 PM MST
Civil Twilight 6:20 AM MST 5:21 PM MST
Nautical Twilight 5:49 AM MST 5:52 PM MST
Astronomical Twilight 5:19 AM MST 6:22 PM MST
Moon No Moon Rise 12:15 PM MST (11/25)
Length of Visible Light 11h 00m
Length of Day
10h 05m
Waning Gibbous, 50% of the Moon is Illuminated
Nov 25
Waning Gibbous
Nov 25
Last Quarter
Dec 2
New
Dec 9
First Quarter
Dec 17
Full

Hourly Weather History & Observations

Time (MST) Temp. Windchill Dew Point Humidity Pressure Visibility Wind Dir Wind Speed Gust Speed Precip Events Conditions
12:15 AM 24.6 °F 15.1 °F 21.0 °F 86% 30.04 in 10.0 mi West 9.2 mph - N/A   Overcast
12:35 AM 24.6 °F 15.1 °F 21.2 °F 87% 30.03 in 10.0 mi WSW 9.2 mph - N/A   Overcast
12:55 AM 23.9 °F 12.9 °F 20.3 °F 86% 30.03 in 10.0 mi West 11.5 mph - N/A   Overcast
1:15 AM 21.6 °F 14.0 °F 18.1 °F 87% 30.03 in 10.0 mi West 5.8 mph - N/A   Mostly Cloudy
1:35 AM 19.4 °F 10.4 °F 17.2 °F 91% 30.02 in 10.0 mi WSW 6.9 mph - N/A   Mostly Cloudy
1:55 AM 16.2 °F 5.5 °F 14.0 °F 91% 30.03 in 10.0 mi WSW 8.1 mph - N/A Snow Light Snow
2:15 AM 18.0 °F 11.1 °F 15.8 °F 91% 30.02 in 10.0 mi WSW 4.6 mph - N/A   Clear
2:35 AM 18.3 °F - 16.7 °F 93% 30.02 in 10.0 mi Calm Calm - N/A   Scattered Clouds
3:15 AM 21.2 °F 10.9 °F 18.3 °F 89% 30.02 in 10.0 mi WNW 9.2 mph - N/A   Overcast
3:35 AM 24.4 °F 13.0 °F 20.8 °F 86% 30.00 in 10.0 mi WNW 12.7 mph - N/A   Overcast
3:55 AM 26.1 °F 15.6 °F 21.2 °F 82% 30.00 in 10.0 mi WNW 11.5 mph - N/A   Overcast
4:15 AM 27.5 °F 18.6 °F 22.3 °F 81% 30.00 in 10.0 mi NW 9.2 mph - N/A   Overcast
4:35 AM 22.8 °F 12.9 °F 19.9 °F 89% 30.02 in 10.0 mi NNE 9.2 mph - N/A   Overcast
4:55 AM 21.9 °F 13.4 °F 19.4 °F 90% 30.02 in 10.0 mi NE 6.9 mph - N/A   Overcast
5:15 AM 22.1 °F 17.4 °F 19.6 °F 90% 30.02 in 10.0 mi ESE 3.5 mph - N/A   Overcast
5:35 AM 25.2 °F 12.4 °F 21.7 °F 87% 30.02 in 10.0 mi North 16.1 mph 24.2 mph N/A   Overcast
5:55 AM 25.7 °F 11.5 °F 22.1 °F 86% 30.02 in 10.0 mi NNW 20.7 mph - N/A   Overcast
6:15 AM 25.7 °F 13.1 °F 22.1 °F 86% 30.03 in 10.0 mi NNW 16.1 mph - N/A   Overcast
6:35 AM 24.1 °F 12.5 °F 20.5 °F 86% 30.05 in 10.0 mi North 12.7 mph 16.1 mph N/A   Scattered Clouds
6:55 AM 22.1 °F 10.0 °F 19.2 °F 89% 30.05 in 10.0 mi North 12.7 mph - N/A   Clear
7:15 AM 20.7 °F - 18.0 °F 89% 30.07 in 10.0 mi Calm Calm - N/A   Clear
7:35 AM 21.2 °F 14.9 °F 18.7 °F 90% 30.08 in 10.0 mi WNW 4.6 mph - N/A   Clear
7:55 AM 19.4 °F 14.3 °F 16.5 °F 89% 30.09 in 10.0 mi NE 3.5 mph - N/A   Clear
8:15 AM 18.9 °F 8.0 °F 15.4 °F 87% 30.11 in 10.0 mi NE 9.2 mph - N/A   Clear
8:35 AM 19.2 °F 11.3 °F 14.9 °F 83% 30.12 in 10.0 mi NE 5.8 mph - N/A   Clear
8:55 AM 22.3 °F 17.6 °F 18.0 °F 83% 30.12 in 10.0 mi North 3.5 mph - N/A   Clear
9:15 AM 22.3 °F - 17.6 °F 82% 30.13 in 10.0 mi Calm Calm - N/A   Clear
9:35 AM 23.9 °F 19.5 °F 18.3 °F 79% 30.13 in 10.0 mi North 3.5 mph - N/A   Clear
9:55 AM 25.3 °F - 18.9 °F 76% 30.14 in 10.0 mi Calm Calm - N/A   Clear
10:15 AM 26.2 °F - 19.4 °F 75% 30.14 in 10.0 mi Calm Calm - N/A   Clear
10:35 AM 29.1 °F - 20.3 °F 70% 30.14 in 10.0 mi Calm Calm - N/A   Clear
10:55 AM 30.2 °F - 21.2 °F 69% 30.14 in 10.0 mi Calm Calm - N/A   Scattered Clouds
11:15 AM 31.1 °F - 21.0 °F 66% 30.14 in 10.0 mi Calm Calm - N/A   Scattered Clouds
11:35 AM 30.2 °F 26.7 °F 20.5 °F 67% 30.14 in 10.0 mi NE 3.5 mph - N/A   Scattered Clouds
11:55 AM 31.3 °F 27.9 °F 20.8 °F 65% 30.14 in 10.0 mi NE 3.5 mph - N/A   Mostly Cloudy
12:15 PM 31.1 °F 27.7 °F 21.0 °F 66% 30.13 in 10.0 mi NE 3.5 mph - N/A   Scattered Clouds
12:35 PM 32.2 °F 28.9 °F 21.9 °F 66% 30.13 in 10.0 mi NE 3.5 mph - N/A   Scattered Clouds
12:55 PM 32.0 °F 28.7 °F 22.5 °F 68% 30.13 in 10.0 mi North 3.5 mph - N/A   Overcast
1:15 PM 32.0 °F - 22.3 °F 67% 30.13 in 10.0 mi Calm Calm - N/A   Overcast
1:35 PM 34.0 °F - 22.3 °F 62% 30.13 in 10.0 mi Calm Calm - N/A   Overcast
1:55 PM 33.3 °F 28.9 °F 23.7 °F 68% 30.13 in 10.0 mi South 4.6 mph - N/A   Overcast
2:15 PM 33.1 °F 28.7 °F 24.6 °F 71% 30.14 in 10.0 mi SSW 4.6 mph - N/A   Overcast
2:35 PM 32.0 °F - 23.4 °F 70% 30.14 in 10.0 mi Calm Calm - N/A   Overcast
2:55 PM 32.9 °F - 23.9 °F 69% 30.14 in 10.0 mi Calm Calm - N/A   Overcast
3:15 PM 32.0 °F - 24.8 °F 75% 30.15 in 10.0 mi Calm Calm - N/A   Overcast
3:35 PM 32.7 °F 25.7 °F 25.9 °F 76% 30.15 in 10.0 mi NNW 8.1 mph - N/A   Overcast
3:55 PM 36.1 °F 27.7 °F 25.3 °F 65% 30.16 in 10.0 mi North 12.7 mph - N/A   Overcast
4:15 PM 36.5 °F 27.8 °F 25.7 °F 65% 30.16 in 10.0 mi North 13.8 mph 20.7 mph N/A   Overcast
4:35 PM 36.7 °F 27.6 °F 25.0 °F 63% 30.17 in 10.0 mi North 15.0 mph - N/A   Overcast
4:55 PM 34.9 °F 25.7 °F 24.3 °F 65% 30.17 in 10.0 mi North 13.8 mph - N/A   Overcast
5:15 PM 32.5 °F 25.5 °F 23.9 °F 70% 30.20 in 10.0 mi NE 8.1 mph - N/A   Scattered Clouds
5:35 PM 28.6 °F 24.8 °F 23.0 °F 80% 30.22 in 10.0 mi SE 3.5 mph - N/A   Clear
5:55 PM 28.4 °F 22.2 °F 23.0 °F 80% 30.23 in 10.0 mi South 5.8 mph - N/A   Clear
6:15 PM 23.7 °F 14.7 °F 20.1 °F 86% 30.24 in 10.0 mi South 8.1 mph - N/A   Clear
6:35 PM 22.1 °F 14.7 °F 19.6 °F 90% 30.26 in 10.0 mi South 5.8 mph - N/A   Clear
6:55 PM 21.2 °F 14.9 °F 19.0 °F 91% 30.26 in 10.0 mi South 4.6 mph - N/A   Clear
7:15 PM 21.7 °F - 19.4 °F 91% 30.28 in 10.0 mi Calm Calm - N/A   Clear
7:35 PM 21.9 °F - 19.9 °F 92% 30.28 in 10.0 mi Calm Calm - N/A   Clear
7:55 PM 19.8 °F - 18.1 °F 93% 30.29 in 10.0 mi Calm Calm - N/A   Clear
8:15 PM 19.2 °F 12.5 °F 17.6 °F 93% 30.29 in 10.0 mi SW 4.6 mph - N/A   Clear
8:35 PM 19.8 °F - 17.2 °F 90% 30.29 in 10.0 mi Calm Calm - N/A   Clear
8:55 PM 13.6 °F - 11.7 °F 92% 30.31 in 10.0 mi Calm Calm - N/A   Clear
9:15 PM 13.5 °F - 11.3 °F 91% 30.31 in 10.0 mi Calm Calm - N/A   Clear
9:35 PM 12.4 °F - 10.4 °F 92% 30.31 in 10.0 mi Calm Calm - N/A   Clear
9:55 PM 12.0 °F 5.9 °F 9.9 °F 91% 30.32 in 10.0 mi West 3.5 mph - N/A   Clear
10:15 PM 10.9 °F - 8.2 °F 89% 30.32 in 10.0 mi Calm Calm - N/A   Clear
10:35 PM 10.6 °F 4.3 °F 7.7 °F 88% 30.32 in 10.0 mi ENE 3.5 mph - N/A   Clear
10:55 PM 10.2 °F 3.8 °F 8.2 °F 92% 30.32 in 10.0 mi NE 3.5 mph - N/A   Clear
11:15 PM 10.0 °F 1.8 °F 7.7 °F 90% 30.33 in 10.0 mi ENE 4.6 mph - N/A   Clear
11:35 PM 8.2 °F -1.8 °F 5.7 °F 89% 30.33 in 10.0 mi NE 5.8 mph - N/A   Clear
11:55 PM 7.7 °F 1.0 °F 5.0 °F 89% 30.34 in 10.0 mi NNE 3.5 mph - N/A   Clear